Location: *
(53.9002°N, 27.5624°E)
Time: 05:08:25
(UTC+00:00)

Cosmos 1891 Rocket - Pass Details

Date: 12 November 2019
Orbit: 934 x 1018 km, 82.9° (Epoch: 07 December)

Event Time Altitude Azimuth Distance (km) Brightness Sun altitude
Rises 16:21:43 0° 349° (NNW) 3,764 7.7 -18.3°
Reaches altitude 10° 16:24:18 10° 350° (N) 2,802 7.0 -18.7°
Maximum altitude 16:30:46 85° 79° (E) 1,009 4.5 -19.6°
Drops below altitude 10° 16:37:04 10° 169° (S) 2,732 6.7 -20.6°
Sets 16:39:33 0° 170° (S) 3,663 7.4 -20.9°
